Year,Month,Day,Hour,Minute,Value (Times are PST for temperature in C)
2018,08,15,00,00,18.90
2018,08,15,00,01,18.80
2018,08,15,00,02,18.80
2018,08,15,00,03,18.80
2018,08,15,00,04,18.70
2018,08,15,00,05,18.70
2018,08,15,00,06,18.70
2018,08,15,00,07,18.60
2018,08,15,00,08,18.60
2018,08,15,00,09,18.60
2018,08,15,00,10,18.50
2018,08,15,00,11,18.50
2018,08,15,00,12,18.40
2018,08,15,00,13,18.40
2018,08,15,00,14,18.40
2018,08,15,00,15,18.30
2018,08,15,00,16,18.30
2018,08,15,00,17,18.20
2018,08,15,00,18,18.20
2018,08,15,00,19,18.20
2018,08,15,00,20,18.10
2018,08,15,00,21,18.10
2018,08,15,00,22,18.00
2018,08,15,00,23,18.00
2018,08,15,00,24,17.90
2018,08,15,00,25,17.90
2018,08,15,00,26,17.90
2018,08,15,00,27,17.80
2018,08,15,00,28,17.80
2018,08,15,00,29,17.80
2018,08,15,00,30,17.70
2018,08,15,00,31,17.70
2018,08,15,00,32,17.70
2018,08,15,00,33,17.60
2018,08,15,00,34,17.60
2018,08,15,00,35,17.60
2018,08,15,00,36,17.50
2018,08,15,00,37,17.50
2018,08,15,00,38,17.40
2018,08,15,00,39,17.40
2018,08,15,00,40,17.40
2018,08,15,00,41,17.30
2018,08,15,00,42,17.30
2018,08,15,00,43,17.30
2018,08,15,00,44,17.30
2018,08,15,00,45,17.20
2018,08,15,00,46,17.20
2018,08,15,00,47,17.20
2018,08,15,00,48,17.20
2018,08,15,00,49,17.10
2018,08,15,00,50,17.10
2018,08,15,00,51,17.10
2018,08,15,00,52,17.10
2018,08,15,00,53,17.10
2018,08,15,00,54,17.00
2018,08,15,00,55,17.00
2018,08,15,00,56,17.00
2018,08,15,00,57,16.90
2018,08,15,00,58,16.90
2018,08,15,00,59,16.90
2018,08,15,01,00,16.90
2018,08,15,01,01,16.90
2018,08,15,01,02,16.80
2018,08,15,01,03,16.80
2018,08,15,01,04,16.80
2018,08,15,01,05,16.80
2018,08,15,01,06,16.70
2018,08,15,01,07,16.70
2018,08,15,01,08,16.70
2018,08,15,01,09,16.70
2018,08,15,01,10,16.60
2018,08,15,01,11,16.60
2018,08,15,01,12,16.60
2018,08,15,01,13,16.50
2018,08,15,01,14,16.50
2018,08,15,01,15,16.40
2018,08,15,01,16,16.40
2018,08,15,01,17,16.40
2018,08,15,01,18,16.40
2018,08,15,01,19,16.30
2018,08,15,01,20,16.30
2018,08,15,01,21,16.30
2018,08,15,01,22,16.30
2018,08,15,01,23,16.20
2018,08,15,01,24,16.20
2018,08,15,01,25,16.20
2018,08,15,01,26,16.20
2018,08,15,01,27,16.20
2018,08,15,01,28,16.10
2018,08,15,01,29,16.10
2018,08,15,01,30,16.10
2018,08,15,01,31,16.10
2018,08,15,01,32,16.00
2018,08,15,01,33,16.00
2018,08,15,01,34,15.90
2018,08,15,01,35,15.90
2018,08,15,01,36,15.90
2018,08,15,01,37,15.90
2018,08,15,01,38,15.90
2018,08,15,01,39,15.80
2018,08,15,01,40,15.80
2018,08,15,01,41,15.80
2018,08,15,01,42,15.80
2018,08,15,01,43,15.80
2018,08,15,01,44,15.70
2018,08,15,01,45,15.70
2018,08,15,01,46,15.70
2018,08,15,01,47,15.70
2018,08,15,01,48,15.70
2018,08,15,01,49,15.60
2018,08,15,01,50,15.60
2018,08,15,01,51,15.50
2018,08,15,01,52,15.50
2018,08,15,01,53,15.40
2018,08,15,01,54,15.40
2018,08,15,01,55,15.40
2018,08,15,01,56,15.30
2018,08,15,01,57,15.30
2018,08,15,01,58,15.30
2018,08,15,01,59,15.30
2018,08,15,02,00,15.20
2018,08,15,02,01,15.20
2018,08,15,02,02,15.20
2018,08,15,02,03,15.20
2018,08,15,02,04,15.10
2018,08,15,02,05,15.10
2018,08,15,02,06,15.10
2018,08,15,02,07,15.00
2018,08,15,02,08,15.00
2018,08,15,02,09,15.00
2018,08,15,02,10,14.90
2018,08,15,02,11,14.90
2018,08,15,02,12,14.90
2018,08,15,02,13,14.90
2018,08,15,02,14,14.90
2018,08,15,02,15,14.80
2018,08,15,02,16,14.80
2018,08,15,02,17,14.80
2018,08,15,02,18,14.80
2018,08,15,02,19,14.80
2018,08,15,02,20,14.80
2018,08,15,02,21,14.80
2018,08,15,02,22,14.70
2018,08,15,02,23,14.70
2018,08,15,02,24,14.70
2018,08,15,02,25,14.70
2018,08,15,02,26,14.70
2018,08,15,02,27,14.60
2018,08,15,02,28,14.60
2018,08,15,02,29,14.60
2018,08,15,02,30,14.60
2018,08,15,02,31,14.60
2018,08,15,02,32,14.60
2018,08,15,02,33,14.50
2018,08,15,02,34,14.50
2018,08,15,02,35,14.50
2018,08,15,02,36,14.40
2018,08,15,02,37,14.40
2018,08,15,02,38,14.40
2018,08,15,02,39,14.40
2018,08,15,02,40,14.40
2018,08,15,02,41,14.40
2018,08,15,02,42,14.30
2018,08,15,02,43,14.30
2018,08,15,02,44,14.30
2018,08,15,02,45,14.30
2018,08,15,02,46,14.30
2018,08,15,02,47,14.30
2018,08,15,02,48,14.30
2018,08,15,02,49,14.30
2018,08,15,02,50,14.30
2018,08,15,02,51,14.30
2018,08,15,02,52,14.30
2018,08,15,02,53,14.30
2018,08,15,02,54,14.30
2018,08,15,02,55,14.20
2018,08,15,02,56,14.20
2018,08,15,02,57,14.20
2018,08,15,02,58,14.20
2018,08,15,02,59,14.20
2018,08,15,03,00,14.20
2018,08,15,03,01,14.20
2018,08,15,03,02,14.10
2018,08,15,03,03,14.10
2018,08,15,03,04,14.10
2018,08,15,03,05,14.10
2018,08,15,03,06,14.10
2018,08,15,03,07,14.10
2018,08,15,03,08,14.00
2018,08,15,03,09,14.00
2018,08,15,03,10,14.00
2018,08,15,03,11,14.00
2018,08,15,03,12,13.90
2018,08,15,03,13,13.90
2018,08,15,03,14,13.90
2018,08,15,03,15,13.90
2018,08,15,03,16,13.90
2018,08,15,03,17,13.80
2018,08,15,03,18,13.80
2018,08,15,03,19,13.80
2018,08,15,03,20,13.80
2018,08,15,03,21,13.80
2018,08,15,03,22,13.80
2018,08,15,03,23,13.70
2018,08,15,03,24,13.70
2018,08,15,03,25,13.70
2018,08,15,03,26,13.70
2018,08,15,03,27,13.70
2018,08,15,03,28,13.60
2018,08,15,03,29,13.60
2018,08,15,03,30,13.60
2018,08,15,03,31,13.60
2018,08,15,03,32,13.60
2018,08,15,03,33,13.60
2018,08,15,03,34,13.60
2018,08,15,03,35,13.60
2018,08,15,03,36,13.50
2018,08,15,03,37,13.50
2018,08,15,03,38,13.50
2018,08,15,03,39,13.50
2018,08,15,03,40,13.50
2018,08,15,03,41,13.40
2018,08,15,03,42,13.40
2018,08,15,03,43,13.40
2018,08,15,03,44,13.40
2018,08,15,03,45,13.40
2018,08,15,03,46,13.40
2018,08,15,03,47,13.40
2018,08,15,03,48,13.30
2018,08,15,03,49,13.30
2018,08,15,03,50,13.30
2018,08,15,03,51,13.30
2018,08,15,03,52,13.30
2018,08,15,03,53,13.30
2018,08,15,03,54,13.30
2018,08,15,03,55,13.20
2018,08,15,03,56,13.20
2018,08,15,03,57,13.20
2018,08,15,03,58,13.20
2018,08,15,03,59,13.20
2018,08,15,04,00,13.20
2018,08,15,04,01,13.20
2018,08,15,04,02,13.20
2018,08,15,04,03,13.10
2018,08,15,04,04,13.10
2018,08,15,04,05,13.10
2018,08,15,04,06,13.10
2018,08,15,04,07,13.10
2018,08,15,04,08,13.00
2018,08,15,04,09,13.00
2018,08,15,04,10,13.00
2018,08,15,04,11,13.00
2018,08,15,04,12,13.00
2018,08,15,04,13,13.00
2018,08,15,04,14,12.90
2018,08,15,04,15,12.90
2018,08,15,04,16,12.90
2018,08,15,04,17,12.90
2018,08,15,04,18,12.90
2018,08,15,04,19,12.90
2018,08,15,04,20,12.90
2018,08,15,04,21,12.90
2018,08,15,04,22,12.90
2018,08,15,04,23,12.90
2018,08,15,04,24,12.80
2018,08,15,04,25,12.80
2018,08,15,04,26,12.80
2018,08,15,04,27,12.80
2018,08,15,04,28,12.80
2018,08,15,04,29,12.80
2018,08,15,04,30,12.70
2018,08,15,04,31,12.70
2018,08,15,04,32,12.70
2018,08,15,04,33,12.70
2018,08,15,04,34,12.70
2018,08,15,04,35,12.70
2018,08,15,04,36,12.70
2018,08,15,04,37,12.60
2018,08,15,04,38,12.60
2018,08,15,04,39,12.60
2018,08,15,04,40,12.60
2018,08,15,04,41,12.60
2018,08,15,04,42,12.50
2018,08,15,04,43,12.50
2018,08,15,04,44,12.50
2018,08,15,04,45,12.50
2018,08,15,04,46,12.40
2018,08,15,04,47,12.40
2018,08,15,04,48,12.40
2018,08,15,04,49,12.40
2018,08,15,04,50,12.40
2018,08,15,04,51,12.40
2018,08,15,04,52,12.30
2018,08,15,04,53,12.30
2018,08,15,04,54,12.30
2018,08,15,04,55,12.30
2018,08,15,04,56,12.30
2018,08,15,04,57,12.30
2018,08,15,04,58,12.30
2018,08,15,04,59,12.30
2018,08,15,05,00,12.30
2018,08,15,05,01,12.30
2018,08,15,05,02,12.30
2018,08,15,05,03,12.30
2018,08,15,05,04,12.30
2018,08,15,05,05,12.30
2018,08,15,05,06,12.30
2018,08,15,05,07,12.30
2018,08,15,05,08,12.30
2018,08,15,05,09,12.20
2018,08,15,05,10,12.20
2018,08,15,05,11,12.20
2018,08,15,05,12,12.20
2018,08,15,05,13,12.20
2018,08,15,05,14,12.20
2018,08,15,05,15,12.20
2018,08,15,05,16,12.10
2018,08,15,05,17,12.10
2018,08,15,05,18,12.10
2018,08,15,05,19,12.10
2018,08,15,05,20,12.10
2018,08,15,05,21,12.10
2018,08,15,05,22,12.10
2018,08,15,05,23,12.00
2018,08,15,05,24,12.00
2018,08,15,05,25,12.00
2018,08,15,05,26,11.90
2018,08,15,05,27,11.90
2018,08,15,05,28,11.90
2018,08,15,05,29,11.90
2018,08,15,05,30,11.90
2018,08,15,05,31,11.90
2018,08,15,05,32,11.90
2018,08,15,05,33,11.80
2018,08,15,05,34,11.80
2018,08,15,05,35,11.80
2018,08,15,05,36,11.80
2018,08,15,05,37,11.80
2018,08,15,05,38,11.80
2018,08,15,05,39,11.80
2018,08,15,05,40,11.70
2018,08,15,05,41,11.70
2018,08,15,05,42,11.70
2018,08,15,05,43,11.70
2018,08,15,05,44,11.70
2018,08,15,05,45,11.70
2018,08,15,05,46,11.70
2018,08,15,05,47,11.60
2018,08,15,05,48,11.60
2018,08,15,05,49,11.60
2018,08,15,05,50,11.60
2018,08,15,05,51,11.60
2018,08,15,05,52,11.60
2018,08,15,05,53,11.60
2018,08,15,05,54,11.60
2018,08,15,05,55,11.60
2018,08,15,05,56,11.50
2018,08,15,05,57,11.50
2018,08,15,05,58,11.50
2018,08,15,05,59,11.50
2018,08,15,06,00,11.50
2018,08,15,06,01,11.50
2018,08,15,06,02,11.50
2018,08,15,06,03,11.50
2018,08,15,06,04,11.50
2018,08,15,06,05,11.50
2018,08,15,06,06,11.40
2018,08,15,06,07,11.40
2018,08,15,06,08,11.40
2018,08,15,06,09,11.40
2018,08,15,06,10,11.40
2018,08,15,06,11,11.40
2018,08,15,06,12,11.40
2018,08,15,06,13,11.40
2018,08,15,06,14,11.40
2018,08,15,06,15,11.30
2018,08,15,06,16,11.30
2018,08,15,06,17,11.40
2018,08,15,06,18,11.40
2018,08,15,06,19,11.40
2018,08,15,06,20,11.40
2018,08,15,06,21,11.40
2018,08,15,06,22,11.40
2018,08,15,06,23,11.40
2018,08,15,06,24,11.40
2018,08,15,06,25,11.40
2018,08,15,06,26,11.40
2018,08,15,06,27,11.40
2018,08,15,06,28,11.40
2018,08,15,06,29,11.40
2018,08,15,06,30,11.30
2018,08,15,06,31,11.30
2018,08,15,06,32,11.30
2018,08,15,06,33,11.30
2018,08,15,06,34,11.30
2018,08,15,06,35,11.30
2018,08,15,06,36,11.30
2018,08,15,06,37,11.30
2018,08,15,06,38,11.30
2018,08,15,06,39,11.30
2018,08,15,06,40,11.30
2018,08,15,06,41,11.30
2018,08,15,06,42,11.30
2018,08,15,06,43,11.30
2018,08,15,06,44,11.30
2018,08,15,06,45,11.30
2018,08,15,06,46,11.30
2018,08,15,06,47,11.30
2018,08,15,06,48,11.30
2018,08,15,06,49,11.30
2018,08,15,06,50,11.30
2018,08,15,06,51,11.30
2018,08,15,06,52,11.30
2018,08,15,06,53,11.30
2018,08,15,06,54,11.30
2018,08,15,06,55,11.30
2018,08,15,06,56,11.30
2018,08,15,06,57,11.30
2018,08,15,06,58,11.30
2018,08,15,06,59,11.30
2018,08,15,07,00,11.30
2018,08,15,07,01,11.30
2018,08,15,07,02,11.30
2018,08,15,07,03,11.30
2018,08,15,07,04,11.30
2018,08,15,07,05,11.30
2018,08,15,07,06,11.30
2018,08,15,07,07,11.40
2018,08,15,07,08,11.40
2018,08,15,07,09,11.40
2018,08,15,07,10,11.40
2018,08,15,07,11,11.40
2018,08,15,07,12,11.40
2018,08,15,07,13,11.40
2018,08,15,07,14,11.50
2018,08,15,07,15,11.50
2018,08,15,07,16,11.50
2018,08,15,07,17,11.50
2018,08,15,07,18,11.60
2018,08,15,07,19,11.60
2018,08,15,07,20,11.60
2018,08,15,07,21,11.60
2018,08,15,07,22,11.60
2018,08,15,07,23,11.60
2018,08,15,07,24,11.70
2018,08,15,07,25,11.70
2018,08,15,07,26,11.70
2018,08,15,07,27,11.70
2018,08,15,07,28,11.70
2018,08,15,07,29,11.70
2018,08,15,07,30,11.70
2018,08,15,07,31,11.80
2018,08,15,07,32,11.80
2018,08,15,07,33,11.80
2018,08,15,07,34,11.80
2018,08,15,07,35,11.90
2018,08,15,07,36,11.90
2018,08,15,07,37,11.90
2018,08,15,07,38,12.00
2018,08,15,07,39,12.10
2018,08,15,07,40,12.10
2018,08,15,07,41,12.20
2018,08,15,07,42,12.30
2018,08,15,07,43,12.30
2018,08,15,07,44,12.40
2018,08,15,07,45,12.50
2018,08,15,07,46,12.50
2018,08,15,07,47,12.60
2018,08,15,07,48,12.70
2018,08,15,07,49,12.70
2018,08,15,07,50,12.80
2018,08,15,07,51,12.80
2018,08,15,07,52,12.90
2018,08,15,07,53,12.90
2018,08,15,07,54,13.00
2018,08,15,07,55,13.00
2018,08,15,07,56,13.10
2018,08,15,07,57,13.20
2018,08,15,07,58,13.20
2018,08,15,07,59,13.20
2018,08,15,08,00,13.30
2018,08,15,08,01,13.30
2018,08,15,08,02,13.40
2018,08,15,08,03,13.50
2018,08,15,08,04,13.50
2018,08,15,08,05,13.60
2018,08,15,08,06,13.70
2018,08,15,08,07,13.70
2018,08,15,08,08,13.80
2018,08,15,08,09,13.80
2018,08,15,08,10,13.80
2018,08,15,08,11,13.90
2018,08,15,08,12,13.90
2018,08,15,08,13,14.00
2018,08,15,08,14,14.10
2018,08,15,08,15,14.10
2018,08,15,08,16,14.20
2018,08,15,08,17,14.20
2018,08,15,08,18,14.20
2018,08,15,08,19,14.30
2018,08,15,08,20,14.30
2018,08,15,08,21,14.40
2018,08,15,08,22,14.40
2018,08,15,08,23,14.40
2018,08,15,08,24,14.40
2018,08,15,08,25,14.40
2018,08,15,08,26,14.40
2018,08,15,08,27,14.50
2018,08,15,08,28,14.50
2018,08,15,08,29,14.50
2018,08,15,08,30,14.60
2018,08,15,08,31,14.60
2018,08,15,08,32,14.60
2018,08,15,08,33,14.70
2018,08,15,08,34,14.70
2018,08,15,08,35,14.70
2018,08,15,08,36,14.80
2018,08,15,08,37,14.80
2018,08,15,08,38,14.90
2018,08,15,08,39,15.00
2018,08,15,08,40,15.00
2018,08,15,08,41,15.10
2018,08,15,08,42,15.20
2018,08,15,08,43,15.20
2018,08,15,08,44,15.30
2018,08,15,08,45,15.40
2018,08,15,08,46,15.50
2018,08,15,08,47,15.70
2018,08,15,08,48,15.70
2018,08,15,08,49,15.80
2018,08,15,08,50,15.80
2018,08,15,08,51,15.90
2018,08,15,08,52,16.00
2018,08,15,08,53,16.10
2018,08,15,08,54,16.20
2018,08,15,08,55,16.20
2018,08,15,08,56,16.30
2018,08,15,08,57,16.30
2018,08,15,08,58,16.40
2018,08,15,08,59,16.40
2018,08,15,09,00,16.50
2018,08,15,09,01,16.50
2018,08,15,09,02,16.60
2018,08,15,09,03,16.60
2018,08,15,09,04,16.60
2018,08,15,09,05,16.60
2018,08,15,09,06,16.70
2018,08,15,09,07,16.80
2018,08,15,09,08,16.90
2018,08,15,09,09,17.00
2018,08,15,09,10,17.10
2018,08,15,09,11,17.20
2018,08,15,09,12,17.20
2018,08,15,09,13,17.30
2018,08,15,09,14,17.30
2018,08,15,09,15,17.30
2018,08,15,09,16,17.40
2018,08,15,09,17,17.40
2018,08,15,09,18,17.40
2018,08,15,09,19,17.50
2018,08,15,09,20,17.50
2018,08,15,09,21,17.50
2018,08,15,09,22,17.50
2018,08,15,09,23,17.50
2018,08,15,09,24,17.60
2018,08,15,09,25,17.60
2018,08,15,09,26,17.60
2018,08,15,09,27,17.70
2018,08,15,09,28,17.80
2018,08,15,09,29,17.90
2018,08,15,09,30,17.90
2018,08,15,09,31,18.00
2018,08,15,09,32,18.10
2018,08,15,09,33,18.10
2018,08,15,09,34,18.00
2018,08,15,09,35,18.10
2018,08,15,09,36,18.10
2018,08,15,09,37,18.10
2018,08,15,09,38,18.10
2018,08,15,09,39,18.10
2018,08,15,09,40,18.10
2018,08,15,09,41,18.10
2018,08,15,09,42,18.20
2018,08,15,09,43,18.20
2018,08,15,09,44,18.30
2018,08,15,09,45,18.30
2018,08,15,09,46,18.30
2018,08,15,09,47,18.30
2018,08,15,09,48,18.30
2018,08,15,09,49,18.30
2018,08,15,09,50,18.30
2018,08,15,09,51,18.30
2018,08,15,09,52,18.30
2018,08,15,09,53,18.40
2018,08,15,09,54,18.40
2018,08,15,09,55,18.40
2018,08,15,09,56,18.50
2018,08,15,09,57,18.60
2018,08,15,09,58,18.60
2018,08,15,09,59,18.70
2018,08,15,10,00,18.70
2018,08,15,10,01,18.80
2018,08,15,10,02,18.80
2018,08,15,10,03,18.90
2018,08,15,10,04,19.00
2018,08,15,10,05,19.10
2018,08,15,10,06,19.20
2018,08,15,10,07,19.20
2018,08,15,10,08,19.20
2018,08,15,10,09,19.20
2018,08,15,10,10,19.20
2018,08,15,10,11,19.20
2018,08,15,10,12,19.20
2018,08,15,10,13,19.30
2018,08,15,10,14,19.30
2018,08,15,10,15,19.40
2018,08,15,10,16,19.40
2018,08,15,10,17,19.50
2018,08,15,10,18,19.50
2018,08,15,10,19,19.50
2018,08,15,10,20,19.60
2018,08,15,10,21,19.60
2018,08,15,10,22,19.60
2018,08,15,10,23,19.70
2018,08,15,10,24,19.70
2018,08,15,10,25,19.70
2018,08,15,10,26,19.80
2018,08,15,10,27,19.80
2018,08,15,10,28,19.80
2018,08,15,10,29,19.80
2018,08,15,10,30,19.90
2018,08,15,10,31,20.00
2018,08,15,10,32,20.00
2018,08,15,10,33,20.20
2018,08,15,10,34,20.30
2018,08,15,10,35,20.40
2018,08,15,10,36,20.40
2018,08,15,10,37,20.50
2018,08,15,10,38,20.50
2018,08,15,10,39,20.50
2018,08,15,10,40,20.40
2018,08,15,10,41,20.40
2018,08,15,10,42,20.40
2018,08,15,10,43,20.40
2018,08,15,10,44,20.40
2018,08,15,10,45,20.50
2018,08,15,10,46,20.50
2018,08,15,10,47,20.60
2018,08,15,10,48,20.70
2018,08,15,10,49,20.80
2018,08,15,10,50,20.90
2018,08,15,10,51,20.90
2018,08,15,10,52,21.00
2018,08,15,10,53,21.10
2018,08,15,10,54,21.10
2018,08,15,10,55,21.10
2018,08,15,10,56,21.20
2018,08,15,10,57,21.20
2018,08,15,10,58,21.20
2018,08,15,10,59,21.20
2018,08,15,11,00,21.20
2018,08,15,11,01,21.20
2018,08,15,11,02,21.30
2018,08,15,11,03,21.40
2018,08,15,11,04,21.50
2018,08,15,11,05,21.60
2018,08,15,11,06,21.70
2018,08,15,11,07,21.70
2018,08,15,11,08,21.70
2018,08,15,11,09,21.80
2018,08,15,11,10,21.80
2018,08,15,11,11,21.80
2018,08,15,11,12,21.80
2018,08,15,11,13,21.90
2018,08,15,11,14,22.00
2018,08,15,11,15,22.10
2018,08,15,11,16,22.20
2018,08,15,11,17,22.20
2018,08,15,11,18,22.20
2018,08,15,11,19,22.20
2018,08,15,11,20,22.30
2018,08,15,11,21,22.30
2018,08,15,11,22,22.20
2018,08,15,11,23,22.20
2018,08,15,11,24,22.20
2018,08,15,11,25,22.20
2018,08,15,11,26,22.20
2018,08,15,11,27,22.20
2018,08,15,11,28,22.20
2018,08,15,11,29,22.30
2018,08,15,11,30,22.30
2018,08,15,11,31,22.40
2018,08,15,11,32,22.50
2018,08,15,11,33,22.50
2018,08,15,11,34,22.60
2018,08,15,11,35,22.70
2018,08,15,11,36,22.80
2018,08,15,11,37,22.80
2018,08,15,11,38,22.90
2018,08,15,11,39,22.90
2018,08,15,11,40,22.90
2018,08,15,11,41,22.90
2018,08,15,11,42,22.90
2018,08,15,11,43,22.90
2018,08,15,11,44,22.90
2018,08,15,11,45,22.90
2018,08,15,11,46,23.00
2018,08,15,11,47,23.00
2018,08,15,11,48,23.10
2018,08,15,11,49,23.20
2018,08,15,11,50,23.20
2018,08,15,11,51,23.30
2018,08,15,11,52,23.30
2018,08,15,11,53,23.30
2018,08,15,11,54,23.40
2018,08,15,11,55,23.40
2018,08,15,11,56,23.50
2018,08,15,11,57,23.50
2018,08,15,11,58,23.60
2018,08,15,11,59,23.60
2018,08,15,12,00,23.60
2018,08,15,12,01,23.70
2018,08,15,12,02,23.70
2018,08,15,12,03,23.70
2018,08,15,12,04,23.80
2018,08,15,12,05,23.90
2018,08,15,12,06,23.90
2018,08,15,12,07,24.00
2018,08,15,12,08,24.10
2018,08,15,12,09,24.10
2018,08,15,12,10,24.20
2018,08,15,12,11,24.20
2018,08,15,12,12,24.30
2018,08,15,12,13,24.30
2018,08,15,12,14,24.30
2018,08,15,12,15,24.30
2018,08,15,12,16,24.40
2018,08,15,12,17,24.40
2018,08,15,12,18,24.50
2018,08,15,12,19,24.50
2018,08,15,12,20,24.60
2018,08,15,12,21,24.60
2018,08,15,12,22,24.60
2018,08,15,12,23,24.70
2018,08,15,12,24,24.80
2018,08,15,12,25,24.90
2018,08,15,12,26,25.00
2018,08,15,12,27,25.10
2018,08,15,12,28,25.10
2018,08,15,12,29,25.20
2018,08,15,12,30,25.20
2018,08,15,12,31,25.20
2018,08,15,12,32,25.20
2018,08,15,12,33,25.20
2018,08,15,12,34,25.30
2018,08,15,12,35,25.30
2018,08,15,12,36,25.40
2018,08,15,12,37,25.50
2018,08,15,12,38,25.50
2018,08,15,12,39,25.60
2018,08,15,12,40,25.60
2018,08,15,12,41,25.70
2018,08,15,12,42,25.70
2018,08,15,12,43,25.70
2018,08,15,12,44,25.70
2018,08,15,12,45,25.80
2018,08,15,12,46,25.80
2018,08,15,12,47,25.90
2018,08,15,12,48,26.00
2018,08,15,12,49,26.10
2018,08,15,12,50,26.10
2018,08,15,12,51,26.10
2018,08,15,12,52,26.20
2018,08,15,12,53,26.20
2018,08,15,12,54,26.20
2018,08,15,12,55,26.30
2018,08,15,12,56,26.30
2018,08,15,12,57,26.40
2018,08,15,12,58,26.40
2018,08,15,12,59,26.50
2018,08,15,13,00,26.60
2018,08,15,13,01,26.70
2018,08,15,13,02,26.80
2018,08,15,13,03,26.90
2018,08,15,13,04,27.00
2018,08,15,13,05,27.10
2018,08,15,13,06,27.20
2018,08,15,13,07,27.20
2018,08,15,13,08,27.30
2018,08,15,13,09,27.40
2018,08,15,13,10,27.50
2018,08,15,13,11,27.50
2018,08,15,13,12,27.50
2018,08,15,13,13,27.60
2018,08,15,13,14,27.70
2018,08,15,13,15,27.70
2018,08,15,13,16,27.70
2018,08,15,13,17,27.70
2018,08,15,13,18,27.70
2018,08,15,13,19,27.70
2018,08,15,13,20,27.70
2018,08,15,13,21,27.60
2018,08,15,13,22,27.60
2018,08,15,13,23,27.70
2018,08,15,13,24,27.70
2018,08,15,13,25,27.70
2018,08,15,13,26,27.80
2018,08,15,13,27,28.00
2018,08,15,13,28,28.10
2018,08,15,13,29,28.20
2018,08,15,13,30,28.20
2018,08,15,13,31,28.30
2018,08,15,13,32,28.30
2018,08,15,13,33,28.40
2018,08,15,13,34,28.50
2018,08,15,13,35,28.60
2018,08,15,13,36,28.70
2018,08,15,13,37,28.70
2018,08,15,13,38,28.90
2018,08,15,13,39,29.00
2018,08,15,13,40,29.10
2018,08,15,13,41,29.30
2018,08,15,13,42,29.40
2018,08,15,13,43,29.50
2018,08,15,13,44,29.60
2018,08,15,13,45,29.60
2018,08,15,13,46,29.50
2018,08,15,13,47,29.40
2018,08,15,13,48,29.30
2018,08,15,13,49,29.10
2018,08,15,13,50,29.10
2018,08,15,13,51,29.00
2018,08,15,13,52,29.00
2018,08,15,13,53,29.00
2018,08,15,13,54,29.00
2018,08,15,13,55,29.10
2018,08,15,13,56,29.20
2018,08,15,13,57,29.30
2018,08,15,13,58,29.30
2018,08,15,13,59,29.40
2018,08,15,14,00,29.50
2018,08,15,14,01,29.60
2018,08,15,14,02,29.70
2018,08,15,14,03,29.80
2018,08,15,14,04,29.80
2018,08,15,14,05,29.80
2018,08,15,14,06,29.90
2018,08,15,14,07,30.00
2018,08,15,14,08,30.00
2018,08,15,14,09,30.10
2018,08,15,14,10,30.00
2018,08,15,14,11,29.90
2018,08,15,14,12,29.90
2018,08,15,14,13,29.90
2018,08,15,14,14,29.80
2018,08,15,14,15,29.80
2018,08,15,14,16,29.80
2018,08,15,14,17,29.80
2018,08,15,14,18,29.80
2018,08,15,14,19,29.80
2018,08,15,14,20,29.80
2018,08,15,14,21,29.90
2018,08,15,14,22,30.00
2018,08,15,14,23,30.00
2018,08,15,14,24,30.00
2018,08,15,14,25,30.00
2018,08,15,14,26,30.00
2018,08,15,14,27,30.10
2018,08,15,14,28,30.10
2018,08,15,14,29,30.10
2018,08,15,14,30,30.10
2018,08,15,14,31,30.10
2018,08,15,14,32,30.10
2018,08,15,14,33,30.20
2018,08,15,14,34,30.40
2018,08,15,14,35,30.50
2018,08,15,14,36,30.60
2018,08,15,14,37,30.70
2018,08,15,14,38,30.80
2018,08,15,14,39,30.80
2018,08,15,14,40,30.90
2018,08,15,14,41,30.90
2018,08,15,14,42,31.00
2018,08,15,14,43,31.10
2018,08,15,14,44,31.20
2018,08,15,14,45,31.30
2018,08,15,14,46,31.30
2018,08,15,14,47,31.30
2018,08,15,14,48,31.30
2018,08,15,14,49,31.20
2018,08,15,14,50,31.20
2018,08,15,14,51,31.10
2018,08,15,14,52,31.10
2018,08,15,14,53,31.00
2018,08,15,14,54,31.00
2018,08,15,14,55,31.00
2018,08,15,14,56,31.00
2018,08,15,14,57,30.90
2018,08,15,14,58,30.90
2018,08,15,14,59,30.90
2018,08,15,15,00,30.90
2018,08,15,15,01,30.90
2018,08,15,15,02,30.90
2018,08,15,15,03,30.90
2018,08,15,15,04,30.90
2018,08,15,15,05,30.90
2018,08,15,15,06,30.90
2018,08,15,15,07,30.90
2018,08,15,15,08,31.00
2018,08,15,15,09,31.00
2018,08,15,15,10,31.10
2018,08,15,15,11,31.20
2018,08,15,15,12,31.20
2018,08,15,15,13,31.10
2018,08,15,15,14,31.10
2018,08,15,15,15,31.00
2018,08,15,15,16,31.10
2018,08,15,15,17,31.00
2018,08,15,15,18,31.00
2018,08,15,15,19,30.90
2018,08,15,15,20,30.90
2018,08,15,15,21,30.90
2018,08,15,15,22,30.90
2018,08,15,15,23,30.90
2018,08,15,15,24,30.90
2018,08,15,15,25,30.80
2018,08,15,15,26,30.80
2018,08,15,15,27,30.80
2018,08,15,15,28,30.80
2018,08,15,15,29,30.80
2018,08,15,15,30,30.70
2018,08,15,15,31,30.70
2018,08,15,15,32,30.70
2018,08,15,15,33,30.70
2018,08,15,15,34,30.70
2018,08,15,15,35,30.70
2018,08,15,15,36,30.70
2018,08,15,15,37,30.70
2018,08,15,15,38,30.70
2018,08,15,15,39,30.60
2018,08,15,15,40,30.60
2018,08,15,15,41,30.60
2018,08,15,15,42,30.60
2018,08,15,15,43,30.70
2018,08,15,15,44,30.70
2018,08,15,15,45,30.60
2018,08,15,15,46,30.60
2018,08,15,15,47,30.60
2018,08,15,15,48,30.60
2018,08,15,15,49,30.60
2018,08,15,15,50,30.60
2018,08,15,15,51,30.50
2018,08,15,15,52,30.50
2018,08,15,15,53,30.50
2018,08,15,15,54,30.50
2018,08,15,15,55,30.50
2018,08,15,15,56,30.50
2018,08,15,15,57,30.50
2018,08,15,15,58,30.40
2018,08,15,15,59,30.40
2018,08,15,16,00,30.40
2018,08,15,16,01,30.40
2018,08,15,16,02,30.40
2018,08,15,16,03,30.40
2018,08,15,16,04,30.40
2018,08,15,16,05,30.40
2018,08,15,16,06,30.40
2018,08,15,16,07,30.30
2018,08,15,16,08,30.30
2018,08,15,16,09,30.30
2018,08,15,16,10,30.30
2018,08,15,16,11,30.30
2018,08,15,16,12,30.30
2018,08,15,16,13,30.30
2018,08,15,16,14,30.30
2018,08,15,16,15,30.30
2018,08,15,16,16,30.30
2018,08,15,16,17,30.20
2018,08,15,16,18,30.20
2018,08,15,16,19,30.10
2018,08,15,16,20,30.10
2018,08,15,16,21,30.10
2018,08,15,16,22,30.10
2018,08,15,16,23,30.10
2018,08,15,16,24,30.10
2018,08,15,16,25,30.10
2018,08,15,16,26,30.10
2018,08,15,16,27,30.10
2018,08,15,16,28,30.00
2018,08,15,16,29,30.00
2018,08,15,16,30,30.00
2018,08,15,16,31,30.00
2018,08,15,16,32,30.00
2018,08,15,16,33,30.00
2018,08,15,16,34,30.00
2018,08,15,16,35,29.90
2018,08,15,16,36,29.90
2018,08,15,16,37,29.90
2018,08,15,16,38,29.90
2018,08,15,16,39,29.90
2018,08,15,16,40,30.00
2018,08,15,16,41,30.00
2018,08,15,16,42,30.00
2018,08,15,16,43,29.90
2018,08,15,16,44,29.90
2018,08,15,16,45,29.90
2018,08,15,16,46,29.90
2018,08,15,16,47,29.80
2018,08,15,16,48,29.80
2018,08,15,16,49,29.80
2018,08,15,16,50,29.80
2018,08,15,16,51,29.80
2018,08,15,16,52,29.90
2018,08,15,16,53,29.90
2018,08,15,16,54,29.90
2018,08,15,16,55,29.80
2018,08,15,16,56,29.80
2018,08,15,16,57,29.80
2018,08,15,16,58,29.80
2018,08,15,16,59,29.80
2018,08,15,17,00,29.80
2018,08,15,17,01,29.80
2018,08,15,17,02,29.80
2018,08,15,17,03,29.80
2018,08,15,17,04,29.80
2018,08,15,17,05,29.80
2018,08,15,17,06,29.70
2018,08,15,17,07,29.70
2018,08,15,17,08,29.60
2018,08,15,17,09,29.60
2018,08,15,17,10,29.60
2018,08,15,17,11,29.60
2018,08,15,17,12,29.60
2018,08,15,17,13,29.60
2018,08,15,17,14,29.60
2018,08,15,17,15,29.60
2018,08,15,17,16,29.60
2018,08,15,17,17,29.60
2018,08,15,17,18,29.60
2018,08,15,17,19,29.70